Regional Weather Roundup
Issued by NWS

Home | Current Version | Previous Version | Graphics & Text | Print | Product List | Glossary On
Versions: 1 2 3 4 5 6 7 8 9 10 11 12 13 14 15 16 17 18 19 20 21 22 23 24 25 26 27 28 29 30 31 32 33 34 35 36 37 38 39 40 41 42 43 44 45 46 47 48 49 50
000
ASUS43 KFSD 220810
RWRSD

WEATHER ROUNDUP FOR SOUTH DAKOTA
NATIONAL WEATHER SERVICE SIOUX FALLS SD
300 AM CDT SAT JUL 22 2017

NOTE: "FAIR" INDICATES FEW OR NO CLOUDS BELOW 12,000 FEET WITH NO
SIGNIFICANT WEATHER AND/OR OBSTRUCTIONS TO VISIBILITY.


SDZ001>005-009-010-012>017-220900-
NORTHWEST AND NORTH CENTRAL SOUTH DAKOTA

CITY           SKY/WX    TMP DP  RH WIND       PRES   REMARKS
BUFFALO          N/A     65  43  44 SW3       29.93R
FAITH            N/A     63  44  50 N9        29.94R
MOBRIDGE       PTCLDY    70  66  87 E5        29.83F
$$

SDZ012>016-024>037-041>051-057-063-072>074-220900-
SOUTHWEST AND SOUTH CENTRAL SOUTH DAKOTA

CITY           SKY/WX    TMP DP  RH WIND       PRES   REMARKS
RAPID CTY ARPT PTCLDY    70  43  37 W9        30.00R
PIERRE         CLEAR     69  65  86 NW3       29.86R
CUSTER         CLOUDY    63  36  36 N3        30.17R
ELLSWORTH AFB  CLOUDY    68  43  39 NW8       30.00R
PHILIP         CLEAR     73  47  39 VRB5      29.91R
PINE RIDGE     MOCLDY    63  61  93 CALM      30.01R
SPEARFISH      FAIR      64  39  39 VRB3      30.05R
WINNER         FAIR      75  61  61 NW3       29.90R
$$

SDZ004>011-016>023-039-040-220900-
NORTHEAST SOUTH DAKOTA

CITY           SKY/WX    TMP DP  RH WIND       PRES   REMARKS
ABERDEEN       CLOUDY    67  67 100 W5        29.82F
WATERTOWN      CLOUDY    67  67 100 SE6       29.81R
BROOKINGS      LGT RAIN  70  66  87 E16       29.80F
SISSETON         N/A     73  71  93 S13G23    29.76F
$$

SDZ017-020-022-023-036>040-048>070-220900-
SOUTHEAST SOUTH DAKOTA

CITY           SKY/WX    TMP DP  RH WIND       PRES   REMARKS
SIOUX FALLS    LGT RAIN  74  73  97 NE13      29.88R
HURON          PTCLDY    67  66  97 CALM      29.79F
CHAMBERLAIN    CLEAR     69  67  93 CALM      29.86R
MITCHELL       MOCLDY    69  67  93 SE13      29.80F
YANKTON        MOCLDY    76  73  91 N18G24    29.84R
$$

ABBREVIATIONS USED IN REMARKS
   TC - TEMPERATURE IN CELSIUS
  WCI - WIND CHILL INDEX
   HX - HEAT INDEX
  VSB - VISIBILITY





USA.gov is the U.S. government's official web portal to all federal, state and local government web resources and services.